User: anonymous   Login
Location: Eurasberg
(48.3353°N, 11.0839°E)
Time: 06:55:14
(UTC+00:00)
Language:

Cosmos 1833 Rocket - Orbit

View from above orbital plane
View from above orbital plane
View from above satellite
View from above satellite

Ground track
Ground track

The orbit is defined by the following mean orbital elements,

1 17590U          26075.75073132 +.00000000 +00000-0 +19726-4 0 00002
2 17590  70.9993 261.6140 0003142 127.0539 233.0873 14.17166729    08
Epoch (UTC): 16 March 2026 18:01:03
Eccentricity: 0.0003142
inclination: 70.9993°
perigee height: 833 km
apogee height: 837 km
right ascension of ascending node: 261.6140°
argument of perigee: 127.0539°
revolutions per day: 14.17166729
mean anomaly at epoch: 233.0873°

The dashed part of the orbit path shows where the satellite is in the earth's shadow,  

DLR